Time,TemperatureF,DewpointF,PressureIn,WindDirection,WindDirectionDegrees,WindSpeedMPH,WindSpeedGustMPH,Humidity,HourlyPrecipIn,Conditions,Clouds,dailyrainin,SoftwareType,DateUTC
2013-08-17 00:11:00,59.0,50.0,-100.00,North,-999,0.0,0.0,74,-99.99,,,-99.99,,2013-08-17 07:11:00,
2013-08-17 01:11:00,56.0,50.0,-100.00,North,-999,0.0,0.0,80,-99.99,,,-99.99,,2013-08-17 08:11:00,
2013-08-17 01:41:00,57.0,51.0,-100.00,North,-999,0.0,0.0,82,-99.99,,,-99.99,,2013-08-17 08:41:00,
2013-08-17 01:52:00,57.0,51.0,-100.00,North,-999,0.0,0.0,82,-99.99,,,-99.99,,2013-08-17 08:52:00,
2013-08-17 02:11:00,56.0,51.0,-100.00,North,-999,0.0,0.0,82,-99.99,,,-99.99,,2013-08-17 09:11:00,
2013-08-17 02:43:00,56.0,51.0,-100.00,North,-999,0.0,0.0,85,-99.99,,,-99.99,,2013-08-17 09:43:00,
2013-08-17 03:12:00,55.0,51.0,-100.00,North,-999,0.0,0.0,85,-99.99,,,-99.99,,2013-08-17 10:12:00,
2013-08-17 03:42:00,55.0,50.0,-100.00,North,-999,0.0,0.0,84,-99.99,,,-99.99,,2013-08-17 10:42:00,
2013-08-17 04:11:00,55.0,50.0,-100.00,North,-999,0.0,0.0,85,-99.99,,,-99.99,,2013-08-17 11:11:00,
2013-08-17 04:42:00,55.0,51.0,-100.00,North,-999,0.0,0.0,88,-99.99,,,-99.99,,2013-08-17 11:42:00,
2013-08-17 04:52:00,54.0,51.0,-100.00,North,-999,0.0,0.0,89,-99.99,,,-99.99,,2013-08-17 11:52:00,
2013-08-17 05:01:00,54.0,51.0,-100.00,North,-999,0.0,0.0,89,-99.99,,,-99.99,,2013-08-17 12:01:00,
2013-08-17 05:41:00,53.0,51.0,-100.00,North,-999,0.0,0.0,93,-99.99,,,-99.99,,2013-08-17 12:41:00,
2013-08-17 06:11:00,53.0,51.0,-100.00,North,-999,0.0,0.0,94,-99.99,,,-99.99,,2013-08-17 13:11:00,
2013-08-17 06:42:00,53.0,52.0,-100.00,North,-999,0.0,0.0,95,-99.99,,,-99.99,,2013-08-17 13:42:00,
2013-08-17 07:41:00,54.0,52.0,-100.00,North,-999,0.0,0.0,94,-99.99,,,-99.99,,2013-08-17 14:41:00,
2013-08-17 09:12:00,62.0,52.0,-100.00,North,-999,0.0,0.0,68,-99.99,,,-99.99,,2013-08-17 16:12:00,
2013-08-17 09:42:00,64.0,50.0,-100.00,North,-999,0.0,0.0,59,-99.99,,,-99.99,,2013-08-17 16:42:00,
2013-08-17 09:53:00,67.0,48.0,-100.00,North,-999,0.0,0.0,50,-99.99,,,-99.99,,2013-08-17 16:53:00,
2013-08-17 10:12:00,69.0,48.0,-100.00,North,-999,0.0,0.0,46,-99.99,,,-99.99,,2013-08-17 17:12:00,
2013-08-17 10:42:00,72.0,47.0,-100.00,North,-999,0.0,0.0,41,-99.99,,,-99.99,,2013-08-17 17:42:00,
2013-08-17 10:52:00,73.0,48.0,-100.00,North,-999,0.0,0.0,41,-99.99,,,-99.99,,2013-08-17 17:52:00,
2013-08-17 11:02:00,73.0,48.0,-100.00,North,-999,0.0,0.0,41,-99.99,,,-99.99,,2013-08-17 18:02:00,
2013-08-17 11:42:00,77.0,49.0,-100.00,North,-999,0.0,0.0,37,-99.99,,,-99.99,,2013-08-17 18:42:00,
2013-08-17 12:11:00,79.0,48.0,-100.00,North,-999,0.0,0.0,34,-99.99,,,-99.99,,2013-08-17 19:11:00,
2013-08-17 12:41:00,80.0,47.0,-100.00,North,-999,0.0,0.0,32,-99.99,,,-99.99,,2013-08-17 19:41:00,
2013-08-17 12:52:00,81.0,47.0,-100.00,North,-999,0.0,0.0,31,-99.99,,,-99.99,,2013-08-17 19:52:00,
2013-08-17 13:11:00,82.0,46.0,-100.00,North,-999,0.0,0.0,29,-99.99,,,-99.99,,2013-08-17 20:11:00,
2013-08-17 13:41:00,85.0,46.0,-100.00,North,-999,0.0,0.0,26,-99.99,,,-99.99,,2013-08-17 20:41:00,
2013-08-17 13:52:00,84.0,46.0,-100.00,North,-999,0.0,0.0,26,-99.99,,,-99.99,,2013-08-17 20:52:00,
2013-08-17 14:01:00,84.0,46.0,-100.00,North,-999,0.0,0.0,26,-99.99,,,-99.99,,2013-08-17 21:01:00,
2013-08-17 14:42:00,86.0,46.0,-100.00,North,-999,0.0,0.0,25,-99.99,,,-99.99,,2013-08-17 21:42:00,
2013-08-17 15:42:00,83.0,46.0,-100.00,North,-999,0.0,0.0,27,-99.99,,,-99.99,,2013-08-17 22:42:00,
2013-08-17 15:52:00,85.0,45.0,-100.00,North,-999,0.0,0.0,25,-99.99,,,-99.99,,2013-08-17 22:52:00,
2013-08-17 16:02:00,85.0,45.0,-100.00,North,-999,0.0,0.0,25,-99.99,,,-99.99,,2013-08-17 23:02:00,
2013-08-17 17:21:00,82.0,46.0,-100.00,North,-999,0.0,0.0,28,-99.99,,,-99.99,,2013-08-18 00:21:00,
2013-08-17 17:41:00,81.0,45.0,-100.00,North,-999,0.0,0.0,28,-99.99,,,-99.99,,2013-08-18 00:41:00,
2013-08-17 18:41:00,77.0,43.0,-100.00,North,-999,0.0,0.0,30,-99.99,,,-99.99,,2013-08-18 01:41:00,
2013-08-17 19:41:00,74.0,43.0,-100.00,North,-999,0.0,0.0,33,-99.99,,,-99.99,,2013-08-18 02:41:00,
2013-08-17 19:52:00,73.0,44.0,-100.00,North,-999,0.0,0.0,35,-99.99,,,-99.99,,2013-08-18 02:52:00,
2013-08-17 20:02:00,73.0,44.0,-100.00,North,-999,0.0,0.0,35,-99.99,,,-99.99,,2013-08-18 03:02:00,
2013-08-17 20:43:00,69.0,44.0,-100.00,North,-999,0.0,0.0,40,-99.99,,,-99.99,,2013-08-18 03:43:00,
2013-08-17 20:53:00,68.0,44.0,-100.00,North,-999,0.0,0.0,42,-99.99,,,-99.99,,2013-08-18 03:53:00,
2013-08-17 21:02:00,-999.0,-99.9,-100.00,North,-999,0.0,0.0,-999,-99.99,,,-99.99,,2013-08-18 04:02:00,
2013-08-17 21:42:00,64.0,44.0,-100.00,North,-999,0.0,0.0,48,-99.99,,,-99.99,,2013-08-18 04:42:00,
2013-08-17 22:12:00,62.0,44.0,-100.00,North,-999,0.0,0.0,52,-99.99,,,-99.99,,2013-08-18 05:12:00,
2013-08-17 22:42:00,59.0,44.0,-100.00,North,-999,0.0,0.0,56,-99.99,,,-99.99,,2013-08-18 05:42:00,
2013-08-17 23:41:00,56.0,44.0,-100.00,North,-999,0.0,0.0,64,-99.99,,,-99.99,,2013-08-18 06:41:00,